Regional Weather Roundup
Issued by NWS

Home | Current Version | Previous Version | Text Only | Print | Product List | Glossary On
Versions: 1 2 3 4 5 6 7 8 9 10 11 12 13 14 15 16 17 18 19 20 21 22 23 24 25 26 27 28 29 30 31 32 33 34 35 36 37 38 39 40 41 42 43 44 45 46 47 48 49 50
000
ASHW40 PHFO 231243
RWRHI

WEATHER ROUNDUP FOR HAWAII
NATIONAL WEATHER SERVICE HONOLULU HI
200 AM HST WED JUL 23 2014

THIS IS AN AUTOMATED REPORT THAT HAS NOT BEEN QUALITY CONTROLLED.

NOTE..."FAIR" INDICATES FEW OR NO CLOUDS BELOW 12,000 FEET WITH NO
SIGNIFICANT WEATHER AND/OR OBSTRUCTIONS TO VISIBILITY.

* - THESE SITES REPORT LIMITED FIELDS

HIZ001>004-231300-
KAUAI-NIIHAU-

CITY           SKY/WX    TMP DP  RH WIND       PRES   REMARKS
LIHUE APT      CLOUDY    78  74  87 E18       30.06F
PORT ALLEN*      N/A     77 N/A N/A NE13        N/A
POIPU*           N/A     79 N/A N/A NE8G20      N/A
PRINCEVILLE*   NOT AVBL
KOKOLE POINT*  NOT AVBL
MOLOAA DAIRY*  NOT AVBL
WAIMEA HTS*      N/A     75  66  73 E3G9        N/A
PUU OPAE*        N/A     70  64  83 CALM        N/A
PUU LUA*       NOT AVBL
MAKAHA RIDGE*  NOT AVBL
$$

HIZ005>011-231300-
OAHU-

CITY           SKY/WX    TMP DP  RH WIND       PRES   REMARKS
HONOLULU       LGT RAIN  79  70  74 E8        30.03F
KALAELOA       PTCLDY    76  69  79 VRB3      30.04F
KANEOHE MCB    CLOUDY    73  66  78 E7        30.04F
WHEELER FIELD  DRIZZLE   73  70  88 NW2       30.05F
BELLOWS*         N/A    N/A N/A N/A E16G22      N/A
KAHUKU*          N/A    N/A N/A N/A E8G15       N/A
WHEELER*       NOT AVBL
WAIANAE HARBOR NOT AVBL
DILLINGHAM*      N/A     73  70  88 E3          N/A
KAHUKU TRN*      N/A     75  72  88 E9G20       N/A
KAWAILOA*      NOT AVBL
KII*             N/A     79  72  78 E14G23      N/A
MAKUA RANGE*     N/A     79  70  73 E8G14       N/A
OAHU FOREST NW   N/A     68  68 100 N18G29      N/A
SCHOFIELD BRK*   N/A     72  68  88 MISG        N/A
SCHOFIELD S*   NOT AVBL
WAIANAE VLY*     N/A     75  68  78 N8G23       N/A
KUAOKALA*        N/A     73  68  83 CALM        N/A
HONOULIUULI*   NOT AVBL
MOKUOLOE IS*     N/A    N/A N/A N/A MISG        N/A
PALEHUA*         N/A     79  72  78 CALM        N/A
WAIAWA PHB*    NOT AVBL
$$

HIZ012>013-231300-
MOLOKAI-

CITY           SKY/WX    TMP DP  RH WIND       PRES   REMARKS
MOLOKAI AIRPT  CLEAR     75  70  84 NE10G20   30.03F
KALAUPAPA      NOT AVBL
MAKAPULAPAI*     N/A     77  68  73 E18G25      N/A
MOLOKAI 1*       N/A     66  64  94 N7G18       N/A
PUU ALII*        N/A     60  60  99 E2G12       N/A
$$

HIZ016-231300-
KAHOOLAWE-

CITY           SKY/WX    TMP DP  RH WIND       PRES   REMARKS
KAHOOLAWE*       N/A     72 N/A N/A E10         N/A
HAKIOAWA*        N/A     71  68  90 MISG      30.14F
HONOKANAIA*      N/A     78  70  76 N13G22    30.02F
KANELOA*         N/A     75  72  88 E14G26    30.12F
KEALIALALO*      N/A    N/A N/A N/A E7G23     30.32F
LUA MAKIKA*    NOT AVBL
$$

HIZ014>015-231300-
LANAI-

CITY           SKY/WX    TMP DP  RH WIND       PRES   REMARKS
LANAI CITY     CLOUDY    72  70  93 NE18      30.06F
LANAI 1*         N/A     70  70 100 NE24G35     N/A
$$

HIZ017>028-231300-
MAUI-

CITY           SKY/WX    TMP DP  RH WIND       PRES   REMARKS
KAHULUI        MOCLDY    76  69  79 NE15      30.02F
KAPALUA-W MAUI NOT AVBL
HANA AIRPORT   CLOUDY    75  70  83 E6        30.06S
HANA*            N/A     77 N/A N/A E6G14       N/A
HALEAKALA SUMM   N/A     46  41  81 E16         N/A
MAALAEA BAY*   NOT AVBL
HALEAKALA*     NOT AVBL
KAUPO GAP*       N/A     61  61 100 N1          N/A
KULA 1*          N/A     56  48  75 E5          N/A
$$

HIZ023>026-231300-
BIG ISLAND OF HAWAII COAST AND LOWER SLOPES-

CITY           SKY/WX    TMP DP  RH WIND       PRES   REMARKS
KAILUA KONA    PTCLDY    79  73  83 E6        29.95F
HILO           CLOUDY    75  72  90 E8        30.01F
HONOKAA*       NOT AVBL
KAWAIHAE MWT*    N/A     79 N/A N/A NE5         N/A
KAWAIHAE*        N/A     79 N/A N/A N2          N/A
SOUTH POINT*     N/A     72 N/A N/A NE13G20     N/A
UPOLU AIRPORT*   N/A    N/A N/A N/A NE17G25     N/A
KAMUELA*       CLOUDY    66  66 100 NE14      30.10F FOG
HAKALAU*         N/A     53  49  85 SW1         N/A
KALOKO-HONOKO*   N/A     75  72  88 E3        29.94F
PALI 2*          N/A     66  63  88 W5G21       N/A
KEALAKOMO*       N/A     77  72  83 NE7G15      N/A
KAUPULEHU*       N/A     72  68  88 E6          N/A
KAPAPALA*        N/A     69  67  92 CALM        N/A
LOWER KAHUKU*  NOT AVBL
PUHE CS*       NOT AVBL
PUHO CS*         N/A     75  71  86 E1          N/A
PTA KEAMUKU*     N/A    N/A N/A N/A NE7         N/A
WAIKOLOA*        N/A     73  66  78 E13G23      N/A
$$

HIZ027>028-231300-
BIG ISLAND OF HAWAII INTERIOR AND SUMMMITS-

CITY           SKY/WX    TMP DP  RH WIND       PRES   REMARKS
BRADSHAW FIELD CLOUDY    54  50  84 SE5       30.36F
MK VISITOR CEN NOT AVBL
MAUNA KEA*       N/A     36  27  69 E17         N/A  WCI  25
MAUNA LOA*       N/A     45  36  70 MISG        N/A
MAUNA LOA 1*   NOT AVBL
PTA KIPUKA*      N/A     57  57 100 S3          N/A
PTA RANGE 17*    N/A     59  55  88 E7G13       N/A
PTA WEST*        N/A     73  72  94 SE7         N/A
NENE CABIN*    NOT AVBL
AHUMOA*          N/A     57  48  73 E5          N/A
PTA PORTABLE*  NOT AVBL
PUU MALI*      NOT AVBL
$$

HIC003-231300-
NORTHWEST ISLANDS-

CITY           SKY/WX    TMP DP  RH WIND       PRES   REMARKS
MIDWAY ISLAND  CLEAR     79  70  73 E9        30.11F
MIDWAY NOS*    NOT AVBL
FRENCH FRIGATE NOT AVBL
$$

PHZ110>124-180-231300-
BUOY REPORTS

STATION/POSITION TIME  TEMP    WIND        PRES    WAVE   SWELL
                       AIR SEA DIR/SP/G            HT/PER HT/DIR
                 (UTC) (F)     (DEG/KT/KT) (MB)    (FT/S) (FT/D)
BUOY 51001       NOT AVBL
BUOY 51101       1200   79 80  100/ 16/ 17 1017.8F   6/ 9   5/110
BUOY 51100       1200   76 78   80/ 12/ 16 1018.7F
BUOY 51003       1200   80 81   50/  8/  8 1015.5F   5/ 7   5
BUOY 51004       1138   78 79   60/ 19/ 23 1014.1F   7/ 8   3/ 90
BARBERS PT BUOY  NOT AVBL
WAIMEA BAY BUOY  1200      80                N/A     3/ 8
KAILUA BAY BUOY  1200      80                N/A     7/ 8
LANAI BUOY       1200      79                N/A     3/12   2/200
BARBERS PT 2     1200      81                N/A     5/ 8   2/180
PAUWELA MAUI     1200      79                N/A     6/ 8
HILO             NOT AVBL
KANEOHE BAY BUOY 1200      79                N/A     5/ 8
HANALEI KAUAI    NOT AVBL
KAHULUI HARBOR   1200   77 80   40/ 14/ 16 1016.2F
HONOLULU HARBOR  1200   78      50/  3/  4 1016.9F
KILO NALU        NOT AVBL
HILO HARBOR      1200   76      70/  6/ 12 1015.8F
MOKUOLOE         1200   79 82   70/ 10/ 13 1017.2F
NAWILIWILI       1200      81                N/A
WHOTS BUOY       NOT AVBL
BUOY 51028       NOT AVBL
$$

......................KEY........................................
  SKY/WX - SKY CONDITIONS/PRESENT WEATHER
  TMP    - TEMPERATURE IN FAHRENHEIT
  DWPT   - DEWPOINT IN FAHRENHEIT
  RH     - RELATIVE HUMIDITY IN PERCENT
  WIND   - DIRECTION AND SPEED /MPH FOR ISLANDS...KTS FOR BUOYS/
  PRES   - MEAN SEA LEVEL PRESSURE IN INCHES OF HG
  VSB    - VISIBILITY IN MILES
  HX     - HEAT INDEX
  WCI    - WIND CHILL INDEX
  VRB    - VARIABLE WIND DIRECTION
  N/A    - NOT AVAILABLE



USA.gov is the U.S. government's official web portal to all federal, state and local government web resources and services.